Regional Weather Roundup
Issued by NWS

Home | Current Version | Previous Version | Graphics & Text | Print | Product List | Glossary On
Versions: 1 2 3 4 5 6 7 8 9 10 11 12 13 14 15 16 17 18 19 20 21 22 23 24 25 26 27 28 29 30 31 32 33 34 35 36 37 38 39 40 41 42 43 44 45 46 47 48 49 50
000
ASUS43 KBIS 292210
RWRND

NORTH DAKOTA REGIONAL WEATHER ROUNDUP
NATIONAL WEATHER SERVICE BISMARCK ND
500 PM CDT SAT AUG 29 2015

NOTE: "FAIR" INDICATES FEW OR NO CLOUDS BELOW 12,000 FEET WITH NO
SIGNIFICANT WEATHER AND/OR OBSTRUCTIONS TO VISIBILITY.


NDZ001>003-009>011-017-292300-
NORTHWEST NORTH DAKOTA

CITY           SKY/WX    TMP DP  RH WIND       PRES   REMARKS
WILLISTON      PTSUNNY   92  47  21 CALM      29.81F HAZE
MINOT          PTSUNNY   94  48  20 S13       29.81F HAZE    HX  90
MINOT AFB      MOSUNNY   95  50  21 S8        29.79F HX  91
$$

NDZ018>021-031>035-040>046-292300-
SOUTHWEST NORTH DAKOTA

CITY           SKY/WX    TMP DP  RH WIND       PRES   REMARKS
BISMARCK       PTSUNNY   92  56  29 SE14      29.86F HAZE    HX  90
DICKINSON      MOSUNNY   98  41  14 SW10      29.85F HX  93
GARRISON         N/A     93  54  26 S12       29.83F HX  91
HETTINGER ARPT SUNNY     97  44  16 S14       29.90F HX  93
$$

NDZ004>008-012>016-024-026-027-054-292300-
NORTHEAST NORTH DAKOTA

CITY           SKY/WX    TMP DP  RH WIND       PRES   REMARKS
GRAND FORKS    PTSUNNY   80  69  69 S13       29.84F
GRND FRKS AFB  PTSUNNY   79  69  72 S8        29.86S
DEVILS LAKE    PTSUNNY   82  64  54 S8        29.85S
$$

NDZ022-023-025-028>030-036>039-047>053-292300-
SOUTHEAST NORTH DAKOTA

CITY           SKY/WX    TMP DP  RH WIND       PRES   REMARKS
FARGO          SUNNY     83  68  60 S14       29.88F
JAMESTOWN      MOSUNNY   84  70  62 S7        29.88F
$$




USA.gov is the U.S. government's official web portal to all federal, state and local government web resources and services.